North Bay Airport
CYYB : now visible

Airfield :











YOU CAN JOIN US ON...

 
LOGIN :

Register | Disclaimer

   EN    FR    IT 

 









Legend :    VFR   Marginal VFR   IFR   Intensive IFR   Very Intensive IFR
Visi :
Ceiling :
>= 8 km
>= 3000ft
5 to 8 km
1000 to 3000 ft
1500m to 5 km
500 to 1000 ft
800 to 1500m
200 to 500 ft
< 800m
< 200 ft
Symbols :   Thunderstorms  Fog  Heavy snow  Heavy precipitations  Wind > 20 kt






- Airport Elevation : 1215 ft
- IATA code : YYB


CYYB - North Bay

CURRENT METAR :
  • 170300Z 06003KT 12SM -SHSN BKN044 M12/M14 A3003 RMK SC6 LAST STFD OBS/NEXT 171200 UTC SLP197

EXPIRED METARs :
  • 170200Z 02003KT 10SM -SHSN OVC048 M11/M14 A3001 RMK SC8 SLP191
  • 170100Z 03005KT 5SM -SHSN OVC033 M10/M12 A2999 RMK SC8 SLP181

TAF TAF CYYB
Valid from the 17 at 02:00 until the 17 at 14:00 UTC


170143Z 1702/1714 36008KT P6SM BKN030
TEMPO 1702/1706 5SM -SHSN BKN020
FM170600 36005KT P6SM SCT030
TEMPO 1706/1708 BKN030
BECMG 1710/1712 VRB03KT RMK NXT FCST BY 170800Z



MET'MAP, your aeronautical weather chart ! - Copyright ORBIFLY December 2007 - Disclaimer

ORBIFLY MET'MAP TEAM :

Programming & Development : Alexandra Zaïnal
Concept & original design : Baudouin d'Aumeries
Assistance for programming : Marc-Olivier Méhu
Technical & hardware support : Manuel Goepfert

Contact : metmap@orbifly.com




SOURCES & CREDITS :

   NOAA       Earth
Advisory